This demonstration page uses our WeatherBlox Daily Observations layout. Learn more.

Left ArrowRight Arrow

36.19886, -115.1175

Hourly Observations for August 21, 2020

Temp ( °F °C ) Dew Point ( °F °C ) Humidity (%) Winds ( mph kmh ) Pressure ( in mb ) Visibility ( mi km ) Precip ( " mm )
12:53 am 00:53 Clear 95 35 37 2.8 13 13 Calm 29.67 1005 10 16.0934 0 0
1:53 am 01:53 Clear 94 34.4 38 3.3 14 14 ENE 6 9 29.68 1005 10 16.0934 0 0
2:53 am 02:53 Clear 91 32.8 39 3.9 16 16 NNE 6 9 29.7 1006 10 16.0934 0 0
3:53 am 03:53 Clear 89 31.7 37 2.8 16 16 NNW 3 6 29.71 1006 10 16.0934 0 0
4:53 am 04:53 Clear 86 30 38 3.3 18 18 WNW 8 13 29.72 1007 10 16.0934 0 0
5:53 am 05:53 Clear 87 30.6 48 8.9 26 26 N 3 6 29.74 1007 10 16.0934 0 0
6:53 am 06:53 Sunny 85 29.4 57 13.9 39 39 NNW 5 7 29.76 1008 10 16.0934 0 0
7:53 am 07:53 Sunny 90 32.2 53 11.7 28 28 ESE 5 7 29.78 1008 10 16.0934 0 0
8:53 am 08:53 Sunny 94 34.4 58 14.4 30 30 E 9 15 29.79 1009 10 16.0934 0 0
9:53 am 09:53 Sunny 95 35 58 14.4 29 29 E 8 13 29.8 1009 10 16.0934 0 0
10:53 am 10:53 Sunny 99 37.2 54 12.2 22 22 E 9 15 29.8 1009 10 16.0934 0 0
11:53 am 11:53 Sunny 102 38.9 58 14.4 23 23 E 13 20 29.79 1009 10 16.0934 0 0
12:53 pm 12:53 Sunny 103 39.4 58 14.4 23 23 VRB 7 11 29.77 1008 10 16.0934 0 0
1:53 pm 13:53 Sunny 106 41.1 56 13.3 19 19 SE 10 17 29.74 1007 10 16.0934 0 0
2:53 pm 14:53 Sunny 109 42.8 51 10.6 15 15 SE 8 13 29.71 1006 10 16.0934 0 0
3:53 pm 15:53 Sunny 109 42.8 52 11.1 15 15 E 13 20 29.69 1005 10 16.0934 0 0
4:53 pm 16:53 Sunny 109 42.8 55 12.8 17 17 ESE 16 26 29.67 1005 10 16.0934 0 0
5:53 pm 17:53 Sunny 108 42.2 49 9.4 14 14 SSE 8 13 29.67 1005 10 16.0934 0 0
6:53 pm 18:53 Sunny 108 42.2 36 2.2 8 8 SSW 12 19 29.68 1005 10 16.0934 0 0
7:53 pm 19:53 Clear 103 39.4 55 12.8 20 20 SE 10 17 29.7 1006 10 16.0934 0 0
8:53 pm 20:53 Clear 99 37.2 57 13.9 25 25 E 10 17 29.72 1007 10 16.0934 0 0
9:53 pm 21:53 Clear 98 36.7 58 14.4 26 26 SSE 7 11 29.74 1007 10 16.0934 0 0
10:53 pm 22:53 Clear 96 35.6 60 15.6 30 30 SSE 6 9 29.75 1008 10 16.0934 0 0
11:53 pm 23:53 Clear 94 34.4 60 15.6 32 32 Calm 29.75 1007 10 16.0934 0 0

Powered by AerisWeather